Regional Weather Roundup
Issued by NWS

Home | Current Version | Previous Version | Text Only | Print | Product List | Glossary On
Versions: 1 2 3 4 5 6 7 8 9 10 11 12 13 14 15 16 17 18 19 20 21 22 23 24 25 26 27 28 29 30 31 32 33 34 35 36 37 38 39 40 41 42 43 44 45 46 47 48 49 50
330
ASUS43 KDTX 120110
RWRMI
MICHIGAN HOURLY REGIONAL WEATHER ROUNDUP
NATIONAL WEATHER SERVICE DETROIT/PONTIAC MI
800 PM EST THU FEB 11 2016

NOTE: "FAIR" INDICATES FEW OR NO CLOUDS BELOW 12,000 FEET WITH NO
SIGNIFICANT WEATHER AND/OR OBSTRUCTION TO VISIBILITY.

MIZ047>049-052>055-059>063-066>070-074>076-081>083-120200-
SOUTHEAST LOWER MICHIGAN

CITY           SKY/WX    TMP DP  RH WIND       PRES   REMARKS
ADRIAN         CLEAR     16   5  62 W6        30.26R WCI   7
ALMA           MOCLDY    17   7  65 W3        30.22S
ANN ARBOR      CLEAR      9   1  70 W3        30.24R
BAD AXE        CLOUDY    10   3  74 S6        30.19S WCI   1
CARO           MOCLDY    10   5  79 SW3       30.20R
DETROIT CITY   CLEAR     14   3  61 SW3       30.25R
DETROIT        PTCLDY    17   4  56 S3        30.26R
FLINT          PTCLDY    17   2  51 SW6       30.21S WCI   9
GROSSE ILE     CLEAR     19   3  49 CALM      30.25R
HILLSDALE      CLOUDY    17   6  63 SW5       30.22S WCI  10
HOWELL         CLOUDY    15   3  58 CALM      30.21S

CITY           SKY/WX    TMP DP  RH WIND       PRES   REMARKS
JACKSON        CLEAR     15   7  70 SW7       30.22S WCI   5
LAMBERTVILLE   CLEAR     17   7  65 W3        30.27S
LANSING        MOCLDY    19   6  57 W10       30.22S WCI   7
LAPEER         MOCLDY     7   2  81 S3        30.20F
MASON          FLURRIES  18   8  65 W3        30.22S
MONROE         CLEAR     17   7  64 SW6       30.26S WCI   8
MT. CLEMENS    PTCLDY    12   2  64 CALM      30.22S
PONTIAC        PTCLDY    13   3  64 S5        30.20R WCI   5
PORT HOPE        N/A     13   4  67 VRB5      30.17S WCI   5
PORT HURON     CLEAR      3   1  92 CALM      30.23S
TRI CITIES     PTCLDY    16   3  56 SW8       30.21S WCI   5
MIDLAND        CLOUDY    17   3  54 W3        30.20S
TROY           CLEAR     18   5  55 SW3       30.25S
SAGINAW HB     CLEAR     18   7  62 SW7       30.21S WCI   8
$$
MIZ043>046-050>051-056>058-064>065-071>073-077>080-120200-
SOUTHWEST LOWER MICHIGAN

CITY           SKY/WX    TMP DP  RH WIND       PRES   REMARKS
BATTLE CREEK   MOCLDY    17  10  74 SW8       30.24S WCI   7
BENTON HARBOR  MOCLDY    18   6  59 SW7       30.28F WCI   9
BIG RAPIDS     CLEAR     14   4  64 W6        30.19S WCI   5
COLDWATER      CLOUDY    18   7  62 W7        30.24F WCI   8
FREMONT        FAIR      12   5  72 CALM      30.22F
HOLLAND        MOCLDY    17   8  67 W6        30.26S WCI   9
GRAND RAPIDS   PTCLDY    18   8  65 W8        30.24S WCI   8
IONIA          MOCLDY    18   6  60 W13       30.21S WCI   4
KALAMAZOO      CLOUDY    17   7  64 W7        30.25S WCI   8
LUDINGTON      CLOUDY    19   8  61 W9        30.22S WCI   8
MARSHALL       CLOUDY    18  11  76 SW9       30.23S WCI   6
MOUNT PLEASANT MOCLDY    18   5  57 W6        30.20S WCI  10
MUSKEGON       MOCLDY    19   7  59 W7        30.25S WCI  10
SOUTH HAVEN    CLOUDY    19   8  61 NW3       30.27S
$$
MIZ016>042-120200-
NORTHERN LOWER MICHIGAN

CITY           SKY/WX    TMP DP  RH WIND       PRES   REMARKS
ALPENA         CLOUDY    16   7  67 W7        30.14R WCI   6
BEAVER ISLAND  CLOUDY    19   6  57 W8        30.13S WCI   8
BELLAIRE       CLOUDY    18   7  61 SW6       30.17S WCI  10
CADILLAC       CLOUDY    13   4  69 SW10      30.13S WCI   0
CHARLEVOIX     CLOUDY    20   9  64 W13       30.16F WCI   7
FRANKFORT      CLOUDY    20   9  62 W8        30.18F WCI  10
GAYLORD        CLOUDY    14   7  73 W12       30.09S WCI   0
GRAYLING       CLOUDY    14   4  64 W10       30.14R WCI   1
HARBOR SPRINGS CLOUDY    18   6  58 W9G16     30.12S WCI   7
HOUGHTON LAKE  MOCLDY    13   3  64 W8        30.15R WCI   2
MANISTEE       CLOUDY    19   3  49 W9        30.20S WCI   9
OSCODA         CLOUDY    16   6  66 W7        30.17R WCI   6
PELLSTON       CLOUDY    16   6  65 W8        30.13S WCI   5
ROGERS CITY    CLOUDY    15   9  76 W6        30.13S WCI   6
TRAVERSE CITY  MOCLDY    17   6  62 S3        30.17S
$$
MIZ007>008-015-120200-
EASTERN UPPER MICHIGAN

CITY           SKY/WX    TMP DP  RH WIND       PRES   REMARKS
KINROSS        CLOUDY    14   7  73 W10G20    30.06F WCI   1
MACKINAC ISLAN CLOUDY    17   5  61 W18G25    30.10S WCI   0
NEWBERRY       CLOUDY    13   5  70 SW12      30.07S WCI   0
S. S. MARIE    LGT SNOW  14   6  70 SW13G23   30.04F WCI   0
MUNISING         N/A     11   4  73 S3        30.10F
$$
MIZ004>006-011>014-085-120200-
CENTRAL UPPER MICHIGAN

CITY           SKY/WX    TMP DP  RH WIND       PRES   REMARKS
MANISTIQUE     MOCLDY    14   3  62 W3        30.12F
ESCANABA       CLOUDY    12   0  57 SW3       30.13F
MENOMINEE      PTCLDY    16  -2  45 W6        30.16R WCI   7
SAWYER-GWINN   MOCLDY    10   7  85 SW5       30.04F WCI   2
$$
MIZ001>003-009>011-084-120200-
WESTERN UPPER MICHIGAN

CITY           SKY/WX    TMP DP  RH WIND       PRES   REMARKS
IRON MOUNTAIN  CLOUDY    15  -3  44 SW6       30.07F WCI   6
HOUGHTON       MIX PCPN  13   6  74 SW14      30.03F WCI  -2
COPPER HARBOR    N/A     18  13  80 NW9G17    30.03F WCI   7
IRONWOOD       CLOUDY    10   0  61 W9        30.09S WCI  -2
$$

ABBREVIATIONS USED IN REMARKS
   TC - TEMPERATURE IN CELSIUS
  WCI - WIND CHILL INDEX
   HX - HEAT INDEX
  VSB - VISIBILITY





USA.gov is the U.S. government's official web portal to all federal, state and local government web resources and services.